User: anonymous   Login
Location: Unspecified
(0.0000°N, 0.0000°E)
Time: 22:31:10
(UTC+00:00)
Language:

CZ-3B DEB - Orbit

View from above orbital plane
View from above orbital plane
View from above satellite
View from above satellite

Ground track
Ground track

The orbit data is extracted from the following two-line orbital elements,

1 40186U 11077K   21023.96505318 -.00000007  00000-0  00000+0 0  9997
2 40186  25.4097 219.2602 7279256 142.5599   0.9528  1.88709811 62682
Epoch (UTC): 23 January 2021 23:09:40
Eccentricity: 0.7279256
inclination: 25.4097°
perigee height: 1148 km
apogee height: 41418 km
right ascension of ascending node: 219.2602°
argument of perigee: 142.5599°
revolutions per day: 1.88709811
mean anomaly at epoch: 0.9528°
orbit number at epoch: 6268

The dashed part of the orbit path shows where the satellite is in the earth's shadow,  

DLR